Temp
62 61 62 62 63 63 62 63 63 63 64 64 64 63 63 63 63 58 55 65 66 68 68 65 66 66 65 64 64 60 50 47 53 53 57 62 62 63 66 66 62 63 63 66 70
61 61 60 61 62 62 62 62 62 62 63 63 64 63 63 62 57 54 65 69 69 68 64 61 60 62 58 59 60 54 48 53 59 57 57 61 64 65 64 61 58 58 63 69 68
60 60 58 58 60 61 61 61 61 60 62 63 63 63 62 59 51 57 68 69 68 67 63 62 62 60 55 57 57 54 50 56 59 59 60 60 59 63 62 56 60 59 60 65 65
59 59 60 58 58 60 61 61 60 59 60 62 62 62 62 56 41 60 67 67 67 65 62 61 58 55 52 52 58 51 57 58 60 59 59 57 60 59 61 64 68 64 64 63 64
58 58 58 58 59 59 60 60 59 59 58 60 62 62 57 49 51 63 66 66 65 61 59 58 55 54 51 53 54 52 54 59 59 59 57 59 56 57 59 62 64 65 64 63 64
58 57 57 58 58 59 59 59 59 58 58 59 60 62 54 44 63 64 63 62 64 61 59 58 57 57 54 53 53 55 55 55 57 57 57 55 53 57 60 62 61 62 61 62 63
57 57 57 57 57 58 58 58 59 57 58 58 59 59 53 51 64 63 64 60 62 62 58 62 60 54 54 51 56 55 50 51 54 55 54 56 51 53 59 60 59 60 61 61 61
57 57 57 57 57 58 57 57 58 57 57 59 58 55 48 63 60 62 62 59 62 62 62 63 63 57 53 54 52 49 48 42 50 54 55 55 46 55 58 57 57 57 56 60 61
57 57 57 57 57 56 57 57 56 58 57 58 53 51 46 61 56 61 62 57 58 59 60 66 60 54 52 46 41 41 36 39 46 53 52 50 45 54 55 55 55 54 56 59 61
57 57 57 57 57 56 57 56 57 57 56 56 54 47 49 48 57 60 61 60 55 54 53 51 50 44 43 41 33 35 37 40 41 49 48 45 45 51 52 51 52 51 54 56 59
57 57 57 57 57 57 53 50 45 45 48 46 46 47 47 55 61 57 60 56 55 49 41 45 38 35 41 46 47 45 42 40 44 50 46 44 43 49 52 47 50 51 51 53 56
56 56 57 57 57 57 50 43 46 47 40 49 49 49 53 54 49 53 60 51 47 40 43 40 34 43 49 49 47 44 40 40 44 48 47 43 42 47 48 49 50 52 52 53 54
56 56 56 56 56 50 45 47 52 50 39 43 48 48 49 52 48 48 55 51 46 40 41 36 41 48 47 46 44 43 39 41 43 44 44 41 39 43 49 48 50 52 55 55 56
56 55 55 56 47 46 43 52 52 50 32 35 41 46 48 49 44 55 56 51 46 41 41 39 44 43 41 42 45 38 45 46 43 40 33 40 29 39 45 46 47 51 52 53 56
55 55 55 55 43 42 48 52 51 43 19 38 41 53 48 45 46 47 57 50 43 42 43 36 40 39 38 40 46 42 47 45 42 35 33 32 29 35 40 44 48 51 51 55 57
55 55 54 47 43 46 49 51 45 26 18 34 41 40 40 45 43 47 48 52 51 45 44 42 45 44 43 45 46 47 43 41 37 33 23 33 33 30 39 46 48 49 52 52 51
55 54 50 48 39 47 48 43 26 19 33 32 35 40 39 39 39 43 40 38 36 32 33 36 38 43 46 42 42 41 37 22 19 17 21 32 32 39 43 48 50 51 52 51 49
55 53 50 47 46 46 42 33 21 25 27 38 37 38 34 40 39 38 37 36 40 39 34 32 28 39 45 42 39 37 37 24 18 19 24 31 28 35 45 49 52 53 49 48 48
53 42 42 44 46 44 37 23 23 23 34 34 37 33 32 37 38 37 33 35 40 41 33 32 33 42 43 46 47 38 32 39 27 15 19 26 32 41 44 46 48 48 49 48 48
40 38 39 45 45 43 32 27 28 32 36 36 26 33 27 32 32 35 35 38 35 42 44 36 29 39 42 46 44 40 45 32 25 11 13 24 27 32 40 44 45 46 47 48 48
40 29 39 45 46 35 26 19 30 35 35 32 30 30 32 32 33 31 34 37 42 39 42 39 35 31 39 36 37 38 36 37 35 29 22 20 26 36 41 42 44 45 47 48 48
39 21 41 43 25 31 22 30 34 33 36 33 32 34 33 33 31 33 32 36 43 43 36 39 34 28 33 38 42 45 41 42 31 27 28 29 28 42 41 42 44 45 46 45 45
33 33 40 39 13 10 19 21 31 30 33 32 29 33 37 33 29 34 33 42 43 42 37 39 32 25 26 33 37 37 39 43 39 34 29 24 28 43 41 42 42 42 44 45 43
33 25 30 37 30 19 15 19 24 34 34 35 33 35 33 28 31 29 32 38 39 40 44 43 34 31 27 32 35 31 38 40 40 28 28 32 32 36 38 41 42 42 41 42 44
32 28 24 16 28 23 24 21 20 23 31 35 31 32 30 24 28 27 32 35 40 41 41 39 29 32 35 36 36 37 37 38 36 39 31 35 33 39 40 41 41 42 44 45 47
30 29 31 28 22 21 25 17 24 28 29 30 28 32 32 27 30 24 33 32 32 37 36 37 30 31 23 34 34 30 36 37 35 34 36 37 34 45 46 41 44 48 47 45 46
37 37 32 27 23 22 26 25 26 30 33 35 33 29 30 33 37 38 39 38 38 34 32 32 30 28 25 30 29 25 32 33 34 38 38 31 39 48 45 44 44 45 45 46 47
MSLP
1019.09 1018.97 1018.57 1018.55 1018.28 1017.91 1017.54 1017.23 1017.05 1016.81 1016.96 1017.45 1017.65 1017.74 1017.74 1017.69 1017.61 1017.57 1016.95 1015.68 1015.64 1015.53 1015.49 1015.28 1014.90 1014.66 1014.52 1014.60 1014.29 1014.37 1015.10 1014.92 1014.17 1013.57 1012.77 1012.37 1012.54 1012.50 1012.46 1013.04 1013.78 1014.39 1014.58 1014.45 1015.32
1018.75 1018.61 1018.53 1017.69 1018.11 1017.82 1017.37 1017.03 1016.95 1016.57 1016.53 1016.94 1017.47 1017.57 1017.59 1017.51 1017.59 1016.94 1015.58 1015.16 1015.42 1015.49 1015.55 1015.41 1015.08 1014.83 1014.80 1014.69 1014.51 1014.58 1014.95 1014.21 1013.39 1012.94 1012.63 1012.36 1012.16 1012.25 1012.80 1013.43 1014.30 1014.83 1014.73 1014.66 1015.46
1018.47 1018.27 1018.25 1018.20 1017.86 1017.73 1017.35 1016.96 1016.79 1016.47 1016.32 1016.52 1017.13 1017.37 1017.55 1017.46 1017.47 1015.52 1015.02 1014.90 1015.23 1015.41 1015.55 1015.55 1015.29 1015.08 1014.92 1014.68 1014.57 1014.51 1014.30 1013.62 1013.14 1012.91 1012.63 1012.43 1012.46 1012.38 1012.61 1013.55 1013.76 1014.34 1015.06 1015.33 1015.78
1018.40 1018.13 1017.94 1017.85 1017.71 1017.62 1017.27 1016.90 1016.72 1016.46 1016.30 1016.36 1016.66 1017.03 1017.45 1017.58 1016.86 1015.09 1014.81 1014.89 1015.11 1015.30 1015.53 1015.50 1015.40 1015.26 1014.93 1014.69 1014.31 1014.52 1013.79 1013.41 1013.06 1012.86 1012.74 1012.83 1012.82 1012.71 1012.63 1012.66 1012.62 1013.68 1014.21 1015.23 1015.83
1018.41 1018.01 1017.83 1017.63 1017.39 1017.09 1016.98 1016.79 1016.48 1016.37 1016.30 1016.26 1016.22 1016.72 1017.32 1017.03 1015.51 1014.95 1014.91 1014.86 1014.97 1015.42 1015.51 1015.39 1015.38 1015.22 1014.83 1014.45 1014.29 1014.28 1013.85 1013.56 1013.24 1013.07 1012.86 1013.01 1013.19 1013.03 1012.85 1012.66 1012.87 1013.91 1014.68 1015.00 1015.47
1018.42 1018.09 1017.72 1017.40 1017.14 1016.74 1016.86 1016.64 1016.60 1016.54 1016.13 1016.18 1016.10 1016.12 1016.37 1015.88 1014.40 1014.66 1014.85 1014.79 1014.79 1015.26 1015.21 1015.24 1015.14 1015.13 1014.80 1014.47 1014.25 1013.91 1013.95 1013.86 1013.71 1013.60 1013.26 1013.26 1013.65 1013.44 1012.91 1012.98 1013.58 1014.13 1014.80 1015.11 1015.23
1018.50 1018.03 1017.69 1017.24 1016.87 1016.80 1016.79 1016.47 1016.30 1016.42 1016.35 1016.05 1015.66 1015.62 1015.38 1014.33 1014.23 1014.46 1014.53 1014.77 1014.75 1014.96 1015.07 1014.86 1014.95 1015.14 1014.83 1014.65 1014.30 1014.25 1014.53 1014.36 1014.05 1013.99 1013.86 1013.84 1014.21 1013.76 1013.30 1013.46 1013.94 1014.34 1014.63 1015.09 1015.27
1018.43 1018.09 1017.61 1017.05 1016.75 1016.69 1016.62 1016.19 1015.95 1015.91 1015.87 1015.73 1015.40 1014.97 1014.78 1014.32 1014.39 1014.45 1014.42 1014.60 1014.68 1014.85 1015.06 1014.88 1014.86 1014.93 1015.14 1014.89 1014.81 1015.04 1015.23 1015.10 1014.35 1014.32 1014.17 1014.39 1014.01 1013.61 1013.37 1014.06 1014.44 1014.59 1014.84 1014.94 1014.95
1018.20 1017.96 1017.51 1017.07 1016.64 1016.61 1016.31 1016.02 1016.02 1015.95 1015.90 1015.79 1016.15 1015.36 1014.64 1014.23 1014.25 1014.04 1014.28 1014.58 1014.73 1014.94 1014.98 1014.87 1014.79 1015.08 1015.44 1015.64 1015.81 1015.90 1015.66 1015.56 1015.02 1014.57 1014.66 1014.96 1014.68 1013.65 1013.63 1014.10 1014.52 1014.72 1014.73 1014.70 1014.70
1017.97 1017.75 1017.50 1017.04 1016.62 1016.39 1016.36 1016.26 1015.81 1015.80 1015.77 1015.69 1015.71 1015.54 1014.71 1013.79 1013.82 1014.03 1014.09 1014.40 1014.82 1015.19 1015.32 1015.35 1015.48 1015.69 1016.15 1016.10 1015.43 1016.21 1016.42 1016.05 1015.52 1015.03 1015.22 1015.31 1014.96 1014.40 1014.15 1014.32 1014.60 1014.78 1014.73 1014.54 1014.25
1017.63 1017.51 1017.34 1017.00 1016.64 1016.22 1016.44 1016.19 1016.46 1016.02 1015.40 1014.90 1015.01 1014.23 1013.71 1013.75 1013.67 1014.02 1014.10 1014.53 1014.94 1015.72 1016.16 1016.16 1016.53 1016.03 1016.04 1016.01 1015.56 1015.71 1016.09 1016.13 1015.71 1015.21 1015.53 1015.40 1015.46 1014.82 1014.46 1014.80 1014.88 1014.88 1014.62 1014.32 1014.11
1017.38 1017.29 1017.15 1017.00 1016.67 1016.41 1016.56 1016.53 1016.31 1016.27 1015.46 1014.65 1014.27 1014.31 1014.12 1013.64 1013.86 1013.94 1013.96 1014.69 1015.30 1016.07 1016.52 1016.95 1016.60 1016.46 1016.30 1016.11 1016.12 1016.27 1016.58 1016.43 1015.94 1015.53 1015.87 1015.81 1015.76 1014.96 1014.72 1014.49 1014.38 1014.30 1014.26 1013.99 1013.77
1017.14 1017.07 1017.04 1016.96 1016.70 1016.59 1016.66 1016.47 1016.37 1016.28 1015.71 1014.27 1013.86 1014.05 1014.00 1013.90 1013.88 1013.68 1013.96 1014.42 1015.26 1016.08 1016.32 1016.62 1016.46 1016.16 1016.25 1016.16 1016.32 1016.27 1016.57 1016.51 1016.46 1016.14 1016.24 1016.37 1015.94 1015.21 1013.99 1013.91 1013.73 1013.46 1013.22 1013.28 1013.17
1016.95 1016.90 1016.91 1016.84 1017.16 1017.03 1016.72 1016.06 1016.47 1016.87 1016.34 1014.09 1013.34 1012.93 1013.79 1014.04 1013.79 1013.33 1013.64 1014.11 1015.14 1015.61 1016.31 1016.72 1016.20 1016.17 1016.13 1016.10 1016.24 1016.25 1016.06 1016.47 1016.99 1017.16 1017.36 1017.03 1016.47 1015.26 1013.88 1013.51 1013.18 1012.76 1012.64 1012.31 1012.18
1016.75 1016.61 1016.66 1016.75 1017.27 1017.24 1016.65 1016.21 1016.67 1017.54 1015.98 1013.16 1012.92 1012.26 1012.60 1013.50 1013.18 1013.19 1013.15 1014.11 1014.46 1015.01 1015.93 1015.84 1015.70 1015.96 1016.00 1015.54 1015.79 1015.83 1015.85 1016.59 1017.41 1018.18 1018.28 1018.06 1017.91 1014.75 1014.06 1013.15 1012.58 1011.81 1011.61 1011.33 1011.24
1016.56 1016.49 1016.54 1016.94 1017.44 1017.17 1016.74 1016.66 1017.35 1017.72 1015.46 1013.42 1012.60 1012.43 1012.92 1013.01 1013.17 1013.10 1013.47 1014.25 1014.41 1014.93 1015.22 1015.27 1015.13 1015.27 1015.19 1015.28 1015.43 1015.85 1016.44 1017.51 1018.66 1019.52 1019.40 1018.37 1017.88 1015.07 1013.65 1012.35 1011.74 1011.17 1011.03 1010.89 1011.01
1016.43 1016.35 1016.61 1016.78 1016.94 1016.76 1016.95 1017.27 1017.58 1016.55 1015.10 1013.73 1012.84 1012.53 1012.44 1012.54 1013.35 1013.27 1013.65 1014.11 1014.24 1014.82 1015.01 1015.45 1015.15 1014.80 1014.72 1015.23 1015.46 1015.96 1016.92 1019.03 1020.29 1020.74 1019.41 1018.49 1017.69 1014.03 1012.71 1011.59 1011.18 1011.13 1010.93 1010.75 1010.74
1016.15 1016.18 1016.49 1016.61 1016.51 1016.74 1017.19 1017.77 1016.90 1015.03 1014.50 1013.38 1012.61 1012.48 1012.43 1012.55 1012.93 1013.52 1013.51 1013.79 1014.40 1014.19 1014.41 1014.80 1015.50 1014.33 1014.04 1014.06 1014.51 1015.65 1016.56 1018.16 1019.48 1020.32 1019.40 1018.61 1016.55 1013.29 1011.72 1011.27 1010.97 1010.78 1010.84 1011.03 1011.00
1015.85 1016.60 1016.83 1016.54 1016.58 1016.78 1017.59 1017.95 1016.41 1015.86 1014.82 1013.74 1012.86 1012.69 1012.11 1012.56 1012.61 1013.50 1013.55 1013.60 1013.71 1013.66 1013.86 1013.98 1014.01 1013.48 1013.51 1013.59 1013.91 1015.40 1015.92 1016.82 1018.70 1020.49 1019.69 1017.94 1015.63 1013.27 1011.49 1010.99 1010.89 1011.01 1011.37 1011.53 1011.56
1016.41 1016.93 1017.03 1016.75 1016.63 1016.91 1017.79 1017.43 1016.88 1016.21 1015.56 1014.59 1013.74 1013.22 1012.92 1012.68 1013.09 1013.29 1013.35 1012.50 1013.69 1013.67 1014.00 1013.69 1013.99 1013.77 1013.78 1013.64 1013.87 1013.93 1015.15 1016.62 1018.06 1019.27 1019.07 1017.26 1015.82 1013.49 1011.97 1011.14 1011.14 1011.33 1011.45 1011.54 1011.81
1016.71 1017.44 1017.13 1016.78 1016.74 1017.46 1018.15 1017.89 1017.06 1015.98 1015.86 1015.14 1014.19 1013.89 1013.74 1013.37 1013.42 1013.15 1012.93 1012.66 1012.68 1013.09 1013.67 1013.49 1013.95 1014.75 1013.98 1013.56 1013.38 1014.05 1014.45 1015.31 1016.40 1017.43 1017.45 1016.78 1014.64 1012.72 1011.81 1011.51 1011.38 1011.46 1011.55 1011.69 1011.96
1017.01 1017.87 1017.28 1017.13 1017.92 1018.23 1018.55 1018.04 1017.48 1016.50 1016.00 1015.26 1014.40 1014.02 1013.76 1014.06 1013.64 1013.44 1012.74 1012.22 1012.08 1012.47 1013.55 1014.05 1014.19 1014.68 1013.95 1013.57 1013.20 1013.08 1013.20 1013.74 1014.90 1016.40 1016.52 1016.13 1014.20 1012.40 1011.77 1011.33 1011.29 1011.35 1011.57 1011.75 1012.05
1017.42 1017.91 1017.60 1017.72 1018.87 1019.59 1019.08 1018.48 1017.73 1016.76 1015.93 1015.65 1014.78 1014.33 1013.97 1014.39 1014.37 1013.62 1013.11 1012.50 1012.53 1012.78 1012.74 1013.43 1013.91 1014.60 1014.89 1014.46 1013.60 1013.19 1013.03 1013.08 1013.91 1014.75 1015.05 1015.34 1013.70 1012.44 1011.98 1011.74 1011.63 1011.80 1011.85 1011.85 1012.10
1017.98 1018.42 1018.35 1018.25 1018.85 1019.54 1019.84 1019.00 1017.89 1016.95 1016.22 1015.77 1015.37 1014.65 1014.28 1014.71 1014.67 1014.23 1013.79 1013.25 1013.43 1013.35 1013.03 1013.03 1013.37 1013.54 1013.60 1013.05 1013.01 1013.09 1012.68 1012.75 1013.23 1014.30 1014.13 1013.82 1013.24 1012.79 1012.69 1012.27 1012.02 1012.10 1012.21 1012.16 1012.26
1017.87 1018.38 1018.65 1018.97 1019.09 1019.42 1019.54 1018.97 1018.19 1017.24 1016.59 1015.91 1015.30 1014.97 1014.73 1014.82 1014.82 1014.04 1013.47 1013.72 1013.59 1013.68 1013.31 1013.49 1013.66 1013.73 1013.73 1013.42 1013.10 1012.88 1012.99 1013.24 1013.45 1013.27 1013.83 1013.06 1013.23 1012.58 1012.42 1012.22 1012.23 1012.27 1012.42 1012.63 1012.53
1017.83 1018.40 1018.80 1018.88 1018.87 1019.16 1019.22 1018.81 1017.86 1016.81 1016.51 1015.88 1015.36 1014.49 1014.26 1014.05 1013.41 1013.58 1013.61 1013.78 1013.96 1014.08 1014.06 1013.83 1013.63 1013.74 1013.91 1013.98 1013.61 1013.42 1013.07 1013.46 1013.67 1014.05 1014.14 1013.16 1012.95 1012.21 1011.74 1012.21 1012.16 1012.07 1012.09 1012.39 1012.60
1017.13 1017.46 1017.92 1018.13 1018.54 1018.81 1018.36 1017.81 1017.04 1016.57 1015.63 1014.95 1014.66 1014.56 1013.97 1013.58 1013.33 1013.43 1013.38 1013.28 1013.21 1013.18 1014.00 1014.42 1014.33 1014.70 1014.60 1014.54 1014.39 1014.09 1013.19 1013.07 1013.37 1013.34 1013.02 1013.18 1011.74 1011.75 1012.17 1011.92 1011.75 1011.63 1011.78 1011.98 1012.00
Wind_Speed
15 14 13 13 15 16 15 13 14 13 12 10 11 8 5 5 6 2 6 7 4 3 7 5 4 3 1 2 2 3 4 4 5 5 5 5 4 1 2 7 4 3 6 5 14
15 16 13 9 14 15 15 13 12 13 12 11 10 8 6 3 3 7 8 8 3 1 3 3 3 1 1 3 2 4 5 10 5 3 4 4 7 9 6 5 3 3 5 14 15
13 13 12 10 11 14 14 12 11 12 11 11 10 8 7 2 2 5 1 4 4 2 1 2 3 2 4 3 4 5 7 5 3 3 1 2 2 1 10 2 7 10 11 15 11
12 12 11 10 9 12 13 12 12 9 13 11 11 10 7 3 6 2 2 2 1 3 2 3 3 4 5 7 5 3 6 4 4 2 2 1 4 3 4 8 8 14 20 14 16
14 11 12 13 13 9 11 11 11 12 11 11 11 12 5 4 7 4 4 2 3 4 5 4 4 4 6 6 3 4 3 5 4 5 3 1 1 1 5 3 7 14 15 18 17
13 14 13 14 14 7 9 10 8 10 9 12 13 16 5 5 3 7 5 1 2 3 4 4 3 2 3 3 7 5 4 2 4 4 3 2 1 3 3 5 9 16 14 13 17
14 15 15 13 14 9 9 7 8 7 10 10 15 9 6 10 4 5 6 2 1 1 1 4 2 1 1 1 2 3 3 1 4 4 3 5 4 8 4 4 9 11 14 12 12
12 14 15 15 12 10 8 7 10 8 10 10 13 3 5 2 0 2 3 1 1 2 2 4 3 1 2 1 4 5 2 4 3 7 3 5 9 8 7 6 8 9 8 11 15
7 11 14 15 12 8 10 7 9 11 8 10 5 5 4 1 4 5 6 4 2 2 3 3 3 2 2 5 4 3 4 4 4 8 5 5 7 8 2 9 9 8 9 9 10
6 6 12 14 14 9 8 10 9 10 6 4 4 6 2 4 3 5 5 6 4 3 3 2 2 3 1 4 9 6 3 4 7 4 5 6 8 7 3 1 7 7 8 9 9
10 6 8 12 15 13 4 3 2 2 6 4 4 2 1 2 5 6 5 5 4 4 5 2 3 8 7 3 3 6 5 4 4 4 5 9 6 13 9 3 7 9 8 10 10
10 9 7 9 13 14 2 2 1 2 6 12 10 6 1 1 4 3 9 6 5 5 5 2 6 5 4 6 6 2 3 4 2 1 6 3 8 13 7 7 9 10 9 10 7
12 9 7 7 11 6 3 3 4 13 4 5 12 6 3 3 4 10 14 6 7 7 9 6 5 10 6 6 10 11 7 4 2 1 2 3 7 9 9 6 7 9 12 9 12
10 9 7 6 4 4 3 5 5 5 4 5 9 8 7 3 4 5 11 6 6 12 7 6 7 4 8 10 9 9 8 9 5 3 4 2 7 6 7 12 6 12 12 14 16
8 9 5 2 2 2 5 2 8 4 4 2 8 3 10 10 8 8 9 2 10 9 8 9 7 9 6 7 7 6 7 9 4 3 2 2 1 8 2 6 8 10 12 14 14
8 5 3 2 2 5 5 5 4 1 6 4 6 9 14 13 2 5 8 3 1 6 3 6 2 7 9 5 8 5 7 8 5 3 3 8 6 6 6 7 6 5 7 9 9
9 3 6 3 3 2 1 2 3 4 1 4 5 11 19 11 11 9 14 12 8 8 8 3 3 2 5 7 2 4 7 2 3 1 7 2 7 10 5 9 6 8 8 4 2
11 2 2 3 2 3 3 3 7 5 4 3 5 9 14 11 11 9 12 16 13 4 7 11 6 10 6 8 9 8 9 8 8 6 4 4 9 8 7 7 7 7 6 3 3
5 2 1 3 1 3 4 4 3 2 2 4 3 6 3 7 6 14 10 11 13 10 5 9 7 2 4 5 12 7 7 7 6 3 4 5 8 10 8 7 5 7 6 7 4
3 2 2 3 3 3 1 5 3 2 7 3 6 1 4 3 6 16 9 12 5 10 5 2 3 4 5 3 1 8 9 5 2 4 4 4 5 6 4 8 5 6 6 4 4
4 4 4 1 1 3 2 5 5 5 3 4 5 3 3 4 7 7 3 2 18 17 7 3 4 3 7 10 17 6 8 3 5 5 5 1 7 8 8 4 7 7 6 6 6
3 3 3 2 4 1 3 4 1 2 4 5 1 0 5 1 4 8 9 3 8 13 13 8 4 5 11 1 3 8 9 17 6 6 3 2 7 4 7 8 8 7 6 4 3
2 1 3 4 2 3 6 4 3 1 4 5 0 2 3 4 1 2 4 4 2 7 14 10 5 5 2 5 3 11 8 18 5 4 10 7 7 3 3 6 4 6 6 5 4
2 2 4 0 3 5 1 6 2 3 5 2 4 2 3 2 1 1 4 4 6 10 8 13 5 4 5 1 5 7 16 12 18 4 4 11 5 2 4 7 5 3 3 5 5
1 3 4 2 4 3 3 2 2 3 1 2 3 6 3 3 5 6 3 1 3 9 4 9 6 8 10 4 7 12 12 16 13 16 7 9 7 6 8 7 4 2 4 6 5
5 3 1 2 2 4 5 3 5 4 4 4 7 7 7 6 6 2 5 5 6 4 3 1 5 5 2 8 4 4 13 15 13 16 12 16 14 11 9 1 5 8 7 7 7
1 1 3 4 2 4 5 7 7 3 7 8 9 4 5 9 7 4 4 2 2 7 4 4 2 3 1 1 7 6 13 15 11 12 16 15 22 17 13 7 7 9 6 8 8
Wind_Direction
292 290 301 316 323 312 307 307 307 234 205 222 238 243 250 281 298 246 236 222 195 319 322 302 284 289 34 280 242 112 80 220 215 167 244 144 165 147 127 113 65 10 153 186 152
301 285 287 321 315 325 310 306 301 285 206 202 220 224 230 270 261 234 248 247 182 319 297 285 243 165 160 242 251 123 155 218 195 192 224 225 169 156 124 128 61 46 17 133 142
311 300 276 284 313 317 319 304 303 324 243 201 201 200 210 165 307 246 261 202 181 169 218 299 296 221 182 163 212 189 195 204 225 156 287 245 143 286 128 215 192 174 153 151 159
320 318 291 267 263 291 324 324 325 282 319 233 194 181 201 197 215 245 220 223 209 149 164 216 227 194 170 182 206 188 241 205 188 154 111 108 308 199 179 202 180 167 162 157 172
352 329 311 276 272 285 307 327 309 322 293 318 211 176 163 217 237 196 203 213 131 145 188 186 183 184 183 194 162 194 258 190 179 162 145 143 53 232 234 202 119 141 162 171 181
345 348 333 303 268 286 296 321 307 311 276 294 291 178 185 216 166 157 184 245 201 191 182 177 196 264 242 236 163 209 217 214 199 202 150 162 118 11 251 150 135 153 180 185 185
346 342 338 318 288 261 282 314 308 301 332 262 294 196 204 209 129 160 142 146 271 187 243 188 229 227 218 220 186 130 157 324 231 193 219 129 282 227 189 149 159 181 182 188 201
338 338 339 340 311 261 267 317 352 307 313 304 298 193 226 187 104 211 152 123 309 292 243 271 153 162 210 234 31 120 97 173 246 154 251 142 250 243 216 176 200 203 201 200 196
321 336 339 346 330 271 276 304 321 310 278 300 262 235 198 359 205 196 166 157 136 301 283 270 104 139 332 132 81 326 191 188 295 204 143 174 249 250 167 184 223 220 216 211 214
288 316 338 339 344 311 275 280 302 301 212 328 271 250 192 218 173 164 174 133 140 132 33 65 86 151 180 187 190 172 189 215 204 218 192 209 251 274 258 129 243 246 236 228 222
301 278 325 337 340 337 312 314 287 289 228 188 267 213 94 246 124 176 150 110 101 96 164 219 147 203 189 235 41 136 153 195 230 220 169 224 233 251 262 201 259 263 246 237 234
311 303 292 332 331 327 100 227 339 312 288 221 226 261 236 236 122 145 134 145 145 169 152 81 237 214 189 193 242 322 20 271 265 237 178 230 252 263 254 244 210 233 247 239 238
311 299 283 321 335 344 194 233 54 19 280 245 204 202 212 172 172 185 167 142 163 159 187 164 238 173 194 203 204 226 206 225 316 87 353 29 283 258 259 235 231 240 235 236 229
320 307 285 319 34 294 252 223 106 86 264 240 186 212 156 191 244 167 181 146 170 194 153 224 249 155 190 212 196 216 198 221 201 127 225 176 275 275 259 246 238 244 230 231 235
316 316 259 126 217 311 281 226 102 72 253 198 155 149 156 173 138 209 156 197 176 171 159 219 191 188 192 185 164 222 172 178 130 128 66 254 301 265 279 286 261 252 236 241 239
325 320 222 4 77 239 317 89 74 149 245 208 135 168 166 190 140 100 155 61 184 168 245 190 160 162 185 194 176 170 92 55 59 93 277 195 182 247 192 200 235 255 262 249 249
325 273 158 137 230 21 87 91 244 195 353 212 186 178 183 172 160 174 181 183 174 159 177 146 200 201 157 160 103 148 119 31 350 353 228 338 210 253 240 251 227 255 249 248 278
305 182 186 213 241 30 101 219 229 255 228 179 242 188 185 154 198 181 189 190 217 207 152 171 208 177 186 187 169 173 160 161 194 202 222 111 235 246 238 273 222 237 188 170 115
123 44 17 287 331 108 105 230 276 294 301 279 123 181 195 183 177 198 202 206 200 206 182 178 230 155 175 155 149 185 193 153 105 11 61 218 290 294 264 260 191 158 164 198 188
99 67 293 340 127 77 136 242 288 283 313 268 216 225 203 165 175 185 190 184 223 205 272 220 150 225 152 98 16 172 158 164 13 138 241 259 266 243 295 263 219 195 193 172 153
59 42 273 91 167 61 223 257 259 265 220 257 184 245 69 214 208 189 235 149 185 196 231 27 75 321 131 200 184 145 189 157 132 161 184 256 261 226 244 256 231 204 201 185 169
102 21 286 22 70 203 207 222 315 337 307 269 115 178 150 24 251 195 218 254 203 165 186 187 131 165 211 22 266 206 203 188 166 209 215 161 271 283 279 241 176 183 193 191 171
123 315 348 79 124 288 301 280 261 310 178 303 191 225 144 184 267 299 200 242 96 212 176 156 192 149 112 342 335 205 200 199 130 106 202 171 248 318 32 115 132 170 202 196 178
104 336 324 138 160 143 244 269 268 226 273 167 310 263 134 147 357 129 348 17 21 262 207 169 173 186 195 318 137 204 204 204 203 175 187 213 216 281 216 190 216 201 220 224 210
77 231 191 213 241 212 157 197 304 302 261 248 228 226 187 149 190 213 224 340 351 312 278 176 223 198 210 198 172 202 213 210 209 222 200 230 190 233 222 220 235 231 236 275 273
149 170 192 210 190 141 227 249 230 258 178 247 230 193 190 212 188 159 168 172 188 187 264 119 235 149 241 196 142 196 207 212 229 239 253 263 274 243 277 203 241 228 222 234 246
179 137 123 218 192 145 205 219 233 214 258 222 216 226 250 235 196 196 210 187 145 152 173 182 100 22 342 184 169 217 201 196 194 209 215 245 252 261 260 269 271 268 250 250 237